[Date Prev][Date Next][Thread Prev][Thread Next] - [Date Index][Thread Index][Author Index]

2 Line ISS Keps 10-23



ISS
1 25544U 98067A   05295.82880787  .00013064  00000-0  93120-4 0  6056
2 25544 051.6454 326.9034 0001205 095.8904 253.1515 15.74213309395764
----
Via the sarex mailing list at AMSAT.ORG courtesy of AMSAT-NA.
To unsubscribe, send "unsubscribe sarex" to Majordomo@amsat.org



AMSAT Top AMSAT Home